Wetterdaten am Flugplatz MSG Übersee

alte Datensätze gelöscht
64 aktuelle Wetterdateneinträge gefunden

Datum/Uhrzeit   Windrichtung/Grad    Geschw./kmh    Temp./C°    Luftdruck/mbar    Spannung/Volt   
2026-08-31 00:01 NW/332 11 22 1020 12,30
2026-08-31 00:11 NO/63 7 22 1020 11,94
2026-08-31 00:21 S/179 13 22 1020 12,13
2026-08-31 00:31 SW/207 20 22 1020 12,16
2026-08-31 00:41 S/197 17 22 1020 12,18
2026-08-31 00:51 S/200 16 22 1020 12,21
2026-08-31 01:01 S/184 20 22 1020 12,24
2026-08-31 01:11 S/185 27 22 1020 12,26
2026-08-31 01:21 S/191 25 21 1020 12,29
2026-08-31 01:31 S/183 28 21 1020 11,86
2026-08-31 01:41 S/187 29 21 1020 12,11
2026-08-31 01:52 S/183 29 21 1019 12,16
2026-08-31 02:02 S/172 27 21 1019 12,17
2026-08-31 02:12 S/181 26 21 1019 12,20
2026-08-31 02:22 S/188 20 21 1019 12,21
2026-08-31 02:32 S/195 25 20 1019 12,24
2026-08-31 02:42 S/187 26 20 1019 11,89
2026-08-31 02:52 S/186 28 20 1019 12,10
2026-08-31 03:02 S/182 27 20 1019 12,13
2026-08-31 03:12 S/177 29 20 1019 12,14
2026-08-31 03:22 S/188 29 20 1019 12,18
2026-08-31 03:32 S/193 29 20 1018 12,20
2026-08-31 03:42 S/189 31 20 1018 12,23
2026-08-31 03:52 SW/212 29 20 1018 11,88
2026-08-31 04:02 S/172 29 20 1018 12,07
2026-08-31 04:12 S/165 28 20 1018 12,11
2026-08-31 04:22 S/175 28 20 1018 12,14
2026-08-31 04:33 S/198 29 20 1018 12,16
2026-08-31 04:43 SW/207 28 20 1018 12,18
2026-08-31 04:53 SW/205 28 20 1018 12,20
2026-08-31 05:03 SW/209 26 20 1018 11,77
2026-08-31 05:13 SW/211 25 20 1018 12,07
2026-08-31 05:23 SW/205 28 20 1018 12,08
2026-08-31 05:33 S/197 31 20 1018 12,11
2026-08-31 05:43 S/202 27 20 1019 12,16
2026-08-31 05:53 SW/246 26 21 1021 12,16
2026-08-31 06:03 O/96 19 20 1021 12,17
2026-08-31 06:13 W/270 11 20 1021 11,82
2026-08-31 06:23 W/250 8 20 1021 12,02
2026-08-31 06:33 SW/233 7 20 1021 12,07
2026-08-31 06:43 SW/234 8 20 1020 12,11
2026-08-31 06:53 SW/243 7 20 1020 12,11
2026-08-31 07:03 SW/245 4 20 1020 12,14
2026-08-31 07:14 SW/236 7 20 1020 12,16
2026-08-31 07:24 SW/222 14 20 1020 11,85
2026-08-31 07:34 SW/213 20 20 1020 12,04
2026-08-31 07:44 SW/218 13 20 1021 12,07
2026-08-31 07:54 SW/219 17 20 1021 12,13
2026-08-31 08:04 SW/218 12 20 1020 12,16
2026-08-31 08:14 SW/206 8 20 1021 12,18
2026-08-31 08:24 SW/203 15 20 1021 12,21
2026-08-31 08:34 SW/215 13 20 1021 11,91
2026-08-31 08:44 SW/237 10 20 1021 12,10
2026-08-31 08:54 SW/227 10 20 1021 12,14
2026-08-31 09:04 SW/214 11 20 1021 12,16
2026-08-31 09:14 SW/213 9 20 1021 12,20
2026-08-31 09:24 SW/208 10 20 1021 12,23
2026-08-31 09:35 SW/210 14 21 1021 12,24
2026-08-31 09:45 SW/211 14 21 1021 11,83
2026-08-31 09:55 SW/223 9 21 1021 12,16
2026-08-31 10:05 W/256 8 21 1021 12,21
2026-08-31 10:15 W/265 10 21 1022 12,32
2026-08-31 10:25 W/281 10 21 1022 12,49
2026-08-31 10:35 W/289 11 22 1022 12,61